This demonstration page uses our WeatherBlox Daily Observations layout. Learn more.

Hourly Observations for September 13, 2019

Temp ( °F °C ) Dew Point ( °F °C ) Humidity (%) Winds ( mph kmh ) Pressure ( in mb ) Visibility ( mi km ) Precip ( " mm )
12:15 am 00:15 Clear 55 12.5 51 10.6 88 88 Calm 30.18 1022 10 16.0934 0 0
12:35 am 00:35 Clear 54 12.2 50 10 87 87 S 3 6 30.19 1022 10 16.0934 0 0
12:55 am 00:55 Clear 52 11 50 9.9 93 93 Calm 30.19 1022 10 16.0934 0 0
1:15 am 01:15 Clear 52 11 50 10.1 94 94 Calm 30.19 1022 10 16.0934 0 0
1:35 am 01:35 Clear 51 10.8 51 10.3 97 97 Calm 30.21 1023 10 16.0934 0 0
1:55 am 01:55 Clear 52 11.1 50 10.1 94 94 Calm 30.2 1023 10 16.0934 0 0
2:15 am 02:15 Clear 52 11 51 10.5 97 97 SSW 5 7 30.22 1023 10 16.0934 0 0
2:35 am 02:35 Clear 53 11.6 51 10.5 93 93 SSW 6 9 30.22 1023 10 16.0934 0 0
2:55 am 02:55 Clear 53 11.5 50 9.9 90 90 Calm 30.22 1023 10 16.0934 0 0
3:15 am 03:15 Clear 51 10.7 50 10 95 95 Calm 30.22 1023 10 16.0934 0 0
3:35 am 03:35 Clear 50 9.9 49 9.6 98 98 SW 3 6 30.22 1023 10 16.0934 0 0
3:55 am 03:55 Clear 51 10.7 50 10.2 97 97 W 5 7 30.23 1024 10 16.0934 0 0
4:15 am 04:15 Clear 53 11.5 50 10.2 92 92 SW 6 9 30.22 1023 10 16.0934 0 0
4:35 am 04:35 Clear 53 11.5 50 10 91 91 WSW 5 7 30.22 1023 10 16.0934 0 0
4:55 am 04:55 Clear 54 12 50 9.9 87 87 WSW 6 9 30.22 1023 10 16.0934 0 0
5:15 am 05:15 Clear 53 11.5 49 9.6 88 88 WSW 3 6 30.22 1023 10 16.0934 0 0
5:35 am 05:35 Clear 53 11.6 49 9.5 87 87 Calm 30.23 1024 10 16.0934 0 0
5:55 am 05:55 Clear 52 11.2 49 9.7 91 91 SW 7 11 30.23 1024 10 16.0934 0 0
6:15 am 06:15 Clear 53 11.5 49 9.6 88 88 WSW 6 9 30.24 1024 10 16.0934 0 0
6:35 am 06:35 Clear 52 11.2 49 9.7 91 91 SW 6 9 30.24 1024 10 16.0934 0 0
6:55 am 06:55 Clear 53 11.7 49 9.5 87 87 WSW 6 9 30.25 1024 10 16.0934 0 0
7:15 am 07:15 Partly Cloudy 53 11.6 49 9.4 86 86 W 6 9 30.25 1024 10 16.0934 0 0
7:35 am 07:35 Partly Cloudy 54 12 49 9.6 85 85 W 8 13 30.25 1024 10 16.0934 0 0
7:55 am 07:55 Sunny 54 12 50 9.8 87 87 W 5 7 30.26 1025 10 16.0934 0 0
8:15 am 08:15 Sunny 55 12.7 51 10.5 87 87 W 7 11 30.25 1024 10 16.0934 0 0
8:35 am 08:35 Sunny 57 13.7 51 10.7 82 82 W 6 9 30.23 1024 10 16.0934 0 0
8:55 am 08:55 Sunny 59 15 52 11 77 77 W 7 11 30.22 1023 10 16.0934 0 0
9:15 am 09:15 Sunny 61 16.2 53 11.5 74 74 W 6 9 30.22 1023 10 16.0934 0 0
9:35 am 09:35 Sunny 64 17.7 54 12.2 70 70 W 5 7 30.21 1023 10 16.0934 0 0
9:55 am 09:55 Sunny 66 19 53 11.6 62 62 W 7 11 30.19 1023 10 16.0934 0 0
10:15 am 10:15 Sunny 68 20.1 53 11.6 58 58 W 7 11 30.18 1022 10 16.0934 0 0
10:35 am 10:35 Sunny 69 20.7 52 10.9 54 54 W 6 9 30.17 1022 10 16.0934 0 0
10:55 am 10:55 Sunny 71 21.6 51 10.4 49 49 WNW 6 9 30.16 1021 10 16.0934 0 0
11:15 am 11:15 Sunny 72 22.2 51 10.5 48 48 WSW 5 7 30.16 1021 10 16.0934 0 0
11:35 am 11:35 Sunny 73 22.8 49 9.7 43 43 WSW 5 7 30.15 1021 10 16.0934 0 0
11:55 am 11:55 Sunny 74 23.3 52 10.9 46 46 SW 5 7 30.15 1021 10 16.0934 0 0
12:15 pm 12:15 Sunny 75 23.9 51 10.6 43 43 SW 8 13 30.14 1021 10 16.0934 0 0
12:35 pm 12:35 Sunny 75 24 50 9.9 41 41 WSW 7 11 30.13 1020 10 16.0934 0 0
12:55 pm 12:55 Sunny 76 24.3 51 10.4 42 42 SW 8 13 30.13 1020 10 16.0934 0 0
1:15 pm 13:15 Sunny 76 24.4 51 10.6 42 42 SW 12 19 30.12 1020 10 16.0934 0 0
1:35 pm 13:35 Sunny 77 25 51 10.6 40 40 SW 14 22 30.11 1019 10 16.0934 0 0
1:55 pm 13:55 Sunny 78 25.4 51 10.7 40 40 SSW 8 13 30.09 1019 10 16.0934 0 0
2:15 pm 14:15 Sunny 79 25.9 52 11.3 40 40 SSW 10 17 30.08 1019 10 16.0934 0 0
2:35 pm 14:35 Sunny 79 26.3 51 10.7 38 38 SSW 7 11 30.07 1018 10 16.0934 0 0
2:55 pm 14:55 Sunny 79 26.1 52 11.3 40 40 SW 10 17 30.06 1018 10 16.0934 0 0
3:15 pm 15:15 Sunny 80 26.6 53 11.6 39 39 SSW 10 17 30.04 1017 10 16.0934 0 0
3:35 pm 15:35 Sunny 80 26.9 53 11.5 38 38 SSW 10 17 30.03 1017 10 16.0934 0 0
3:55 pm 15:55 Sunny 81 27.1 53 11.9 39 39 SSW 9 15 30.02 1017 10 16.0934 0 0
4:15 pm 16:15 Sunny 81 27 54 12 39 39 S 9 15 30.02 1017 10 16.0934 0 0
4:35 pm 16:35 Sunny 80 26.9 54 12.1 40 40 S 8 13 30.01 1016 10 16.0934 0 0
4:55 pm 16:55 Sunny 80 26.7 54 12.1 40 40 SSW 13 20 30.01 1016 10 16.0934 0 0
5:15 pm 17:15 Sunny 81 27 53 11.9 39 39 SSW 13 20 30 1016 10 16.0934 0 0
5:35 pm 17:35 Sunny 80 26.7 54 12.1 40 40 S 10 17 29.99 1016 10 16.0934 0 0
5:55 pm 17:55 Sunny 80 26.7 54 12 40 40 SSW 10 17 29.99 1016 10 16.0934 0 0
6:15 pm 18:15 Sunny 80 26.5 53 11.7 40 40 SSW 10 17 29.99 1016 10 16.0934 0 0
6:35 pm 18:35 Sunny 79 26 54 12.4 43 43 S 7 11 30 1016 10 16.0934 0 0
6:55 pm 18:55 Sunny 77 25.1 57 13.8 50 50 S 6 9 30.01 1016 10 16.0934 0 0
7:15 pm 19:15 Sunny 74 23.3 60 15.5 62 62 SSE 3 6 30.02 1017 10 16.0934 0 0
7:35 pm 19:35 Sunny 72 22.1 60 15.6 67 67 SSE 5 7 30.02 1017 10 16.0934 0 0
7:55 pm 19:55 Clear 70 21 60 15.7 72 72 SSE 6 9 30.03 1017 10 16.0934 0 0
8:15 pm 20:15 Clear 68 20 60 15.3 74 74 SSE 5 7 30.04 1017 10 16.0934 0 0
8:35 pm 20:35 Clear 66 18.7 58 14.7 78 78 SSE 5 7 30.05 1018 10 16.0934 0 0
8:55 pm 20:55 Clear 65 18.2 58 14.5 79 79 SSE 3 6 30.05 1018 10 16.0934 0 0
9:15 pm 21:15 Clear 65 18.6 57 13.8 74 74 SSE 8 13 30.05 1018 10 16.0934 0 0
9:35 pm 21:35 Clear 65 18.5 57 13.8 74 74 SSE 8 13 30.05 1018 10 16.0934 0 0
9:55 pm 21:55 Clear 65 18.5 56 13.6 73 73 SSE 8 13 30.05 1018 10 16.0934 0 0
10:15 pm 22:15 Clear 65 18.5 56 13.5 73 73 SSE 8 13 30.06 1018 10 16.0934 0 0
10:35 pm 22:35 Clear 66 18.7 56 13.1 70 70 SSE 9 15 30.07 1018 10 16.0934 0 0
10:55 pm 22:55 Clear 66 18.7 55 13 70 70 S 9 15 30.06 1018 10 16.0934 0 0
11:15 pm 23:15 Clear 65 18.6 55 13 70 70 SSE 8 13 30.06 1018 10 16.0934 0 0
11:35 pm 23:35 Clear 65 18.6 55 13 70 70 SSE 9 15 30.06 1018 10 16.0934 0 0
11:55 pm 23:55 Clear 65 18.5 55 13 71 71 SSE 9 15 30.06 1018 10 16.0934 0 0

Powered by AerisWeather